Visibility
15.0 15.0 15.0 15.0 15.0 15.0 15.0 15.0 15.0 15.0 15.0 15.0 15.0 15.0 15.0 8.3 6.6 10.2 14.8 13.7 15.0 15.0 15.0 15.0 15.0 15.0 15.0 15.0 15.0 15.0 15.0 15.0 15.0 15.0 15.0 15.0 15.0 15.0 15.0 15.0 15.0 15.0 10.8 4.8 5.6 0.2 6.2 15.0 15.0 12.9 15.0 15.0 15.0 15.0
15.0 15.0 15.0 15.0 15.0 15.0 15.0 15.0 15.0 15.0 15.0 15.0 15.0 15.0 15.0 14.6 6.6 5.2 14.6 14.9 14.6 15.0 15.0 15.0 15.0 15.0 15.0 15.0 15.0 15.0 15.0 15.0 15.0 15.0 15.0 11.9 15.0 8.0 15.0 15.0 15.0 15.0 15.0 15.0 15.0 15.0 15.0 15.0 15.0 15.0 15.0 15.0 15.0 15.0
15.0 15.0 15.0 15.0 15.0 15.0 15.0 15.0 15.0 15.0 15.0 15.0 15.0 15.0 15.0 15.0 8.2 12.3 9.3 15.0 15.0 13.6 13.0 15.0 15.0 15.0 15.0 15.0 15.0 15.0 12.1 15.0 14.3 15.0 15.0 13.9 15.0 15.0 15.0 15.0 15.0 15.0 15.0 15.0 15.0 15.0 15.0 15.0 15.0 15.0 15.0 15.0 15.0 15.0
15.0 15.0 15.0 15.0 15.0 15.0 15.0 15.0 15.0 15.0 15.0 15.0 15.0 15.0 15.0 15.0 13.9 13.1 15.0 14.5 7.9 12.9 1.5 13.0 15.0 15.0 15.0 15.0 15.0 15.0 15.0 15.0 15.0 15.0 7.0 8.2 14.8 15.0 13.3 15.0 15.0 15.0 15.0 15.0 15.0 15.0 15.0 15.0 15.0 15.0 15.0 15.0 15.0 15.0
15.0 15.0 15.0 15.0 15.0 15.0 15.0 15.0 15.0 15.0 15.0 15.0 15.0 15.0 15.0 15.0 15.0 4.0 15.0 15.0 7.2 0.2 0.1 15.0 15.0 14.3 15.0 15.0 15.0 15.0 15.0 7.2 6.0 10.4 0.9 12.3 15.0 15.0 8.0 5.4 7.4 15.0 15.0 15.0 15.0 15.0 15.0 15.0 15.0 15.0 15.0 15.0 15.0 15.0
15.0 15.0 15.0 15.0 15.0 15.0 15.0 15.0 15.0 15.0 15.0 15.0 15.0 15.0 15.0 15.0 15.0 15.0 0.6 0.8 15.0 14.7 0.1 0.1 0.4 7.1 15.0 15.0 15.0 15.0 15.0 15.0 15.0 15.0 15.0 15.0 15.0 15.0 15.0 8.7 15.0 15.0 15.0 15.0 15.0 15.0 15.0 15.0 15.0 15.0 15.0 15.0 15.0 15.0
15.0 15.0 15.0 15.0 15.0 15.0 15.0 15.0 15.0 15.0 15.0 15.0 15.0 15.0 15.0 15.0 14.4 0.4 0.1 15.0 15.0 15.0 0.1 0.1 0.2 15.0 15.0 15.0 15.0 15.0 15.0 15.0 15.0 15.0 15.0 15.0 14.0 15.0 13.5 15.0 15.0 15.0 15.0 15.0 15.0 15.0 15.0 15.0 15.0 15.0 15.0 15.0 15.0 15.0
15.0 15.0 15.0 15.0 15.0 15.0 15.0 15.0 15.0 15.0 15.0 15.0 15.0 15.0 15.0 15.0 15.0 7.3 15.0 14.4 15.0 1.9 0.1 0.1 0.2 0.3 5.0 4.0 3.1 1.4 5.4 14.0 9.1 11.3 8.7 1.8 7.5 3.7 0.6 15.0 15.0 15.0 15.0 15.0 15.0 15.0 15.0 15.0 15.0 15.0 15.0 15.0 15.0 15.0
15.0 15.0 15.0 15.0 15.0 15.0 15.0 15.0 15.0 15.0 15.0 15.0 15.0 15.0 15.0 3.6 1.2 0.2 15.0 15.0 15.0 15.0 0.5 0.1 0.3 14.9 0.6 1.6 2.0 0.9 1.4 0.6 2.2 0.3 1.8 6.0 1.9 1.0 15.0 15.0 15.0 15.0 15.0 15.0 15.0 15.0 15.0 15.0 15.0 15.0 15.0 15.0 15.0 8.6
15.0 15.0 15.0 15.0 15.0 15.0 15.0 15.0 15.0 15.0 15.0 15.0 15.0 15.0 13.5 0.1 10.7 13.7 0.3 0.2 0.6 0.5 0.1 0.3 15.0 9.9 14.8 1.8 1.1 3.6 1.1 3.2 1.7 11.6 9.8 0.2 4.5 15.0 15.0 15.0 15.0 15.0 15.0 15.0 15.0 15.0 15.0 15.0 15.0 15.0 15.0 15.0 2.0 15.0
15.0 15.0 15.0 15.0 15.0 15.0 15.0 15.0 14.8 15.0 15.0 15.0 14.5 0.7 0.1 3.6 0.1 0.8 0.8 0.1 0.7 0.4 2.4 4.0 10.3 4.8 4.4 4.8 1.9 4.0 0.3 0.7 1.7 14.9 3.8 7.6 2.0 15.0 15.0 15.0 15.0 15.0 15.0 15.0 15.0 15.0 15.0 15.0 15.0 15.0 15.0 15.0 14.4 3.2
15.0 15.0 15.0 15.0 14.9 15.0 15.0 14.4 9.3 8.3 0.1 9.9 10.5 0.0 0.0 7.4 0.9 0.4 1.2 0.8 0.3 10.8 9.6 0.1 0.4 15.0 0.5 14.3 2.6 0.1 0.3 0.3 1.4 4.1 0.4 4.8 15.0 15.0 15.0 15.0 15.0 15.0 15.0 15.0 15.0 15.0 15.0 15.0 15.0 15.0 14.5 15.0 1.4 0.9
15.0 15.0 15.0 15.0 12.5 15.0 15.0 14.9 7.5 15.0 15.0 0.2 2.6 1.7 1.7 0.3 0.2 0.2 5.7 1.9 1.3 13.5 4.2 0.8 1.1 4.0 0.4 1.5 0.2 0.4 0.2 1.2 5.5 0.3 6.9 15.0 15.0 15.0 15.0 15.0 15.0 15.0 15.0 15.0 15.0 15.0 15.0 15.0 15.0 15.0 15.0 4.4 1.1 1.8
15.0 15.0 15.0 15.0 15.0 15.0 10.4 15.0 5.1 6.9 0.1 0.0 0.4 0.5 1.2 2.2 1.2 15.0 15.0 15.0 15.0 6.8 4.6 5.5 1.8 4.1 0.8 0.3 0.3 0.4 6.3 0.5 0.2 0.6 8.1 15.0 15.0 15.0 15.0 15.0 6.1 15.0 15.0 15.0 15.0 15.0 15.0 15.0 15.0 15.0 15.0 2.2 3.8 7.3
15.0 15.0 15.0 15.0 15.0 15.0 15.0 15.0 7.4 2.1 0.0 0.0 0.2 1.2 4.2 1.8 6.9 6.0 10.6 5.5 4.6 7.3 15.0 9.9 7.4 9.8 0.5 0.1 0.2 0.1 0.1 0.4 10.6 15.0 15.0 15.0 15.0 15.0 15.0 15.0 15.0 15.0 15.0 15.0 15.0 15.0 15.0 15.0 15.0 15.0 5.9 3.3 1.4 13.3
15.0 15.0 15.0 15.0 15.0 15.0 7.9 14.6 1.2 0.0 0.0 0.0 0.1 0.5 0.5 2.9 1.5 1.7 0.3 4.9 13.9 11.7 7.7 6.0 0.5 0.2 0.1 0.1 0.1 0.3 1.2 6.0 15.0 15.0 15.0 15.0 14.9 15.0 15.0 15.0 15.0 15.0 15.0 15.0 15.0 15.0 15.0 15.0 15.0 15.0 2.8 3.7 5.0 15.0
12.3 15.0 15.0 15.0 15.0 15.0 15.0 0.0 0.0 0.0 0.1 0.1 0.2 5.5 13.8 0.6 13.9 10.3 15.0 15.0 14.8 15.0 7.3 0.5 0.1 0.5 8.0 0.3 0.1 13.2 9.7 15.0 15.0 15.0 15.0 15.0 15.0 7.9 15.0 15.0 15.0 15.0 15.0 15.0 15.0 15.0 15.0 15.0 15.0 12.4 4.1 14.7 14.5 15.0
7.9 15.0 15.0 15.0 13.9 8.5 0.0 0.1 0.0 0.0 0.1 0.2 0.1 3.6 1.3 14.0 8.2 6.2 4.3 7.6 14.5 8.0 2.6 6.1 4.5 1.1 0.1 0.1 0.6 15.0 4.0 2.3 14.3 3.8 2.6 5.0 15.0 15.0 15.0 15.0 15.0 15.0 15.0 15.0 15.0 13.1 14.8 7.6 15.0 15.0 15.0 14.8 14.8 10.2
15.0 14.8 14.9 13.1 10.2 0.0 0.0 0.0 0.0 0.1 0.3 5.3 4.3 2.0 6.6 10.4 14.5 10.1 13.3 15.0 12.3 12.3 4.8 0.3 0.7 1.2 15.0 10.8 15.0 15.0 15.0 15.0 15.0 15.0 15.0 15.0 15.0 15.0 15.0 15.0 15.0 15.0 6.9 4.8 3.1 1.0 11.7 15.0 13.4 15.0 15.0 12.8 3.9 13.4
8.9 10.6 14.9 14.7 5.0 0.0 0.0 0.0 0.0 0.1 0.2 11.4 1.2 0.1 4.4 11.3 5.9 4.1 4.1 13.1 12.5 3.8 0.8 0.1 1.4 15.0 15.0 15.0 12.0 15.0 15.0 15.0 15.0 10.4 15.0 15.0 15.0 15.0 15.0 15.0 14.3 15.0 5.8 1.7 1.0 0.4 0.2 4.9 0.5 14.5 5.2 4.0 14.7 14.6
10.9 15.0 8.0 7.6 0.1 0.0 0.0 0.1 0.1 0.2 1.6 14.9 4.3 14.5 8.9 2.6 3.2 0.5 0.3 5.7 0.4 0.1 0.3 14.9 15.0 15.0 15.0 15.0 15.0 15.0 15.0 15.0 15.0 15.0 15.0 15.0 15.0 15.0 15.0 15.0 15.0 4.4 0.6 0.6 1.3 0.8 0.4 1.3 15.0 6.7 3.5 8.7 15.0 15.0
0.1 12.5 0.1 0.1 0.0 0.0 0.1 0.1 0.1 1.5 3.8 2.1 1.8 1.7 2.7 0.2 0.3 2.7 2.5 0.2 0.2 15.0 15.0 15.0 15.0 15.0 15.0 15.0 13.4 15.0 14.0 12.3 14.0 2.1 11.8 15.0 15.0 9.9 6.9 9.4 2.3 0.8 1.1 2.9 8.2 6.3 5.7 15.0 15.0 11.9 4.7 5.8 13.0 6.7
0.2 0.7 0.1 0.1 0.1 0.1 0.1 0.1 0.1 0.2 8.0 0.4 0.8 1.4 4.1 2.5 6.7 2.8 0.4 5.4 14.9 4.6 4.1 11.7 15.0 15.0 15.0 15.0 15.0 15.0 0.7 0.4 0.7 6.4 8.4 7.8 11.5 10.9 3.7 4.3 5.7 0.5 0.4 5.1 3.0 0.3 12.6 14.8 14.8 4.0 2.4 5.4 4.0 3.8
0.3 0.1 0.1 0.1 0.1 0.1 0.1 0.1 0.1 0.6 0.5 2.2 1.6 3.0 4.8 4.4 0.8 0.4 1.3 7.4 6.6 4.1 15.0 15.0 15.0 15.0 15.0 15.0 15.0 15.0 15.0 12.4 13.2 15.0 14.8 3.6 1.3 5.1 4.0 3.8 1.8 3.0 2.9 0.8 0.2 0.1 3.8 15.0 15.0 2.4 2.2 2.6 5.4 14.0
0.2 0.1 0.1 0.1 0.1 0.8 0.6 0.8 1.2 2.4 9.9 2.0 4.1 7.7 5.2 1.9 0.1 0.1 0.5 14.9 12.4 4.6 15.0 15.0 15.0 15.0 5.1 13.2 15.0 15.0 15.0 4.8 0.2 0.6 14.6 1.2 0.2 2.1 9.6 13.5 2.6 2.5 0.3 0.1 0.1 0.1 2.3 14.6 6.8 2.4 2.7 3.0 11.7 15.0
0.1 0.1 0.2 0.2 0.2 7.0 4.3 4.2 2.7 7.8 8.2 3.3 6.8 4.5 1.8 0.7 0.1 0.4 13.9 1.8 3.0 3.3 7.0 3.1 1.5 1.9 12.1 3.7 0.2 1.5 13.9 0.5 0.1 0.2 12.3 15.0 0.2 0.1 0.2 0.4 1.2 4.1 3.5 0.1 0.1 0.1 0.2 4.6 4.6 3.0 2.4 12.9 15.0 15.0
0.1 0.2 1.0 15.0 15.0 14.8 8.5 9.2 15.0 15.0 9.6 10.4 9.3 1.5 0.4 0.1 0.7 6.8 1.5 2.1 6.7 13.0 3.4 0.8 0.7 0.6 1.2 4.8 14.7 15.0 15.0 14.8 1.0 0.5 1.8 3.6 3.2 1.2 0.1 0.1 0.3 15.0 8.6 0.1 0.1 0.1 0.1 6.7 4.8 6.0 2.2 15.0 14.8 8.3
0.5 1.4 10.4 3.6 11.4 5.7 14.8 12.5 7.7 11.7 15.0 15.0 11.3 2.3 7.7 14.0 11.4 2.0 2.7 4.6 3.0 0.2 0.1 0.1 0.2 0.8 1.1 6.9 14.7 6.4 5.3 13.6 12.3 14.2 14.0 11.8 13.8 13.8 10.8 1.0 0.7 0.6 0.1 0.3 0.1 0.1 0.1 1.3 5.7 6.6 15.0 15.0 13.6 11.2
1.2 0.7 1.2 1.3 3.9 8.8 10.1 14.3 14.6 5.3 1.8 9.6 13.7 2.7 2.0 1.7 1.7 2.7 1.9 0.3 0.3 0.5 3.0 8.3 14.0 11.4 12.2 15.0 15.0 13.9 0.5 0.1 0.3 2.3 8.1 13.4 15.0 15.0 2.6 0.9 1.2 0.5 0.2 0.2 0.1 0.1 0.1 0.2 4.2 4.0 15.0 15.0 10.2 15.0
1.2 0.5 1.0 0.9 0.7 0.9 0.7 0.5 0.6 0.5 0.4 0.2 0.1 0.1 0.5 0.3 0.3 0.4 1.0 4.2 2.9 0.5 0.3 0.5 1.6 2.9 2.2 2.4 4.9 15.0 15.0 2.9 0.1 0.1 0.1 0.7 4.9 15.0 9.7 0.6 1.1 0.3 0.1 0.1 0.1 0.1 0.1 0.1 0.3 0.2 3.7 5.1 6.5 6.8
0.5 0.5 0.3 0.3 0.5 1.7 0.2 0.1 0.1 0.1 0.2 0.3 0.2 0.3 0.2 0.2 0.2 0.3 3.4 2.6 1.9 0.4 0.2 0.2 1.1 4.0 1.3 2.4 1.3 2.6 9.1 15.0 6.3 4.4 0.4 0.1 0.2 0.4 0.3 0.3 0.2 0.1 0.1 0.1 0.1 0.1 0.2 0.9 0.2 0.8 2.4 3.5 3.6 2.4
0.6 0.3 0.3 0.3 0.5 1.0 0.2 0.1 0.1 0.1 0.3 0.4 0.3 0.3 0.2 0.2 0.3 0.3 1.5 1.7 0.3 0.2 0.2 0.3 0.5 1.0 0.6 0.4 0.3 0.2 0.2 0.2 0.6 0.2 0.1 0.1 0.7 0.3 0.1 0.1 0.1 0.1 0.1 0.1 0.1 0.1 0.1 0.1 0.9 4.1 4.1 10.6 7.8 7.1
1.3 0.5 0.1 0.1 0.2 0.3 0.4 0.1 0.1 0.1 0.3 0.5 0.4 0.5 0.4 0.4 0.3 0.3 1.1 0.2 0.1 0.2 0.2 0.3 0.4 0.4 0.3 0.3 0.3 0.3 0.3 0.3 0.2 0.2 0.2 0.1 0.2 0.1 0.1 0.1 0.1 0.1 0.1 0.1 0.1 0.1 0.1 0.1 2.0 7.3 14.7 8.0 6.9 15.0